Content
SEND FEEDBACK

Daily
Averages
Monthly
Summary
United States of America

AGAT, GUAM


Home > North America > United States > Guam
Elevation: 364 feet     Latitude: 13 33N     Longitude: 144 50E

WEATHER
 
SELECT A DAY
Number of Records: 208,997;   Date Range: 1/1/95 - 7/26/14
 
SHARE

PRINT THIS DATA

[ ← Previous Day ]
WEATHER ALMANAC - MAY 19, 2013
[ Next Day → ]
[ °C ]   °F
Weather ElementAverageHighLow
Temperature85.2 °F90 °F (11:54 am)78.1 °F (5:54 am)
Dewpoint74.5 °F75.2 °F (4:01 pm)73 °F (5:54 am)
Humidity70.6 %84 % (5:54 am)59 % (10:54 am)
Barometer29.87 in29.91 in (7:54 am)29.83 in (2:54 pm)
Wind Speed6.4 mph12.7 mph (12:54 pm)
Wind Gust18.4 mph (1:54 pm)
Weather ElementAverage
Visibility10 mi
Wind DirectionESE (106.4 °)

Weather ElementTotal
Precipitation---
Cooling Degree Days19.1 (Base 65)
Growing Degree Days34.1 (Base 50)
Averaged from 25 records on May 19, 2013
WEATHER CONDITIONS BREAKOUT
WIND DIRECTION BREAKOUT
WEATHER BY HOUR - MAY 19, 2013
[ °C ]   °F
Local TimeTemperatureDewpointHumidityBarometerVisibilityWind DirectionWind SpeedGust SpeedPrecipitationEventsConditions
1:54 AM82.9 °F75.0 °F77 %29.87 in10.0 miEast (90°)3.5 mphClear
2:54 AM81.0 °F73.9 °F79 %29.86 in10.0 miCalmClear
3:54 AM80.1 °F73.9 °F81 %29.85 in10.0 miESE (110°)4.6 mphClear
4:54 AM81.0 °F75.0 °F82 %29.86 in10.0 miEast (80°)3.5 mphClear
5:54 AM78.1 °F73.0 °F84 %29.88 in10.0 miNNE (20°)5.8 mphPartly Cloudy
6:54 AM82.9 °F75.0 °F77 %29.89 in10.0 miCalmClear
7:54 AM84.9 °F73.9 °F69 %29.91 in10.0 miESE (110°)4.6 mphPartly Cloudy
8:54 AM87.1 °F73.0 °F63 %29.91 in10.0 miENE (60°)6.9 mphPartly Cloudy
9:54 AM88.0 °F73.0 °F61 %29.90 in10.0 miEast (100°)4.6 mphScattered Clouds
10:54 AM89.1 °F73.0 °F59 %29.89 in10.0 miESE (110°)9.2 mphPartly Cloudy
11:54 AM90.0 °F75.0 °F61 %29.88 in10.0 miEast (100°)10.4 mphPartly Cloudy
12:54 PM90.0 °F73.9 °F59 %29.87 in10.0 miESE (110°)12.7 mph17.3 mphPartly Cloudy
1:54 PM89.1 °F75.0 °F63 %29.84 in10.0 miSE (140°)11.5 mph18.4 mphScattered Clouds
2:54 PM89.1 °F73.9 °F61 %29.83 in10.0 miSE (130°)8.1 mphScattered Clouds
3:54 PM87.1 °F75.0 °F67 %29.83 in10.0 miSE (140°)6.9 mphScattered Clouds
4:01 PM87.8 °F75.2 °F66 %29.85 in10.0 miSSE (150°)11.5 mph17.3 mphMostly Cloudy
4:18 PM87.8 °F75.2 °F66 %29.86 in10.0 miSSE (150°)9.2 mphScattered Clouds
4:54 PM87.1 °F75.0 °F67 %29.84 in10.0 miESE (120°)9.2 mphScattered Clouds
5:54 PM86.0 °F75.0 °F70 %29.85 in10.0 miSE (130°)6.9 mphPartly Cloudy
6:54 PM84.9 °F75.0 °F72 %29.87 in10.0 miSE (130°)5.8 mphPartly Cloudy
7:54 PM84.0 °F75.0 °F74 %29.88 in10.0 miSE (130°)5.8 mphPartly Cloudy
8:54 PM84.0 °F75.0 °F74 %29.89 in10.0 miSE (140°)5.8 mphClear
9:54 PM82.9 °F75.0 °F77 %29.90 in10.0 miSE (140°)5.8 mphPartly Cloudy
10:54 PM82.9 °F75.0 °F77 %29.89 in10.0 miSE (130°)4.6 mphPartly Cloudy
11:54 PM82.0 °F75.0 °F79 %29.88 in10.0 miSE (140°)3.5 mphPartly Cloudy
Hourly data recorded from PGUM, located miles away from Agat, Guam







STORIES FROM OUR PARTNERS